Вернуться в каталог

FENGYUN 1C DEB

АктивенPO
NORAD 29741·DEBRIS·🇨🇳 China

Запущен May 10, 1999 с Taiyuan Satellite Launch Center

Loading…

Ближайшие Пролёты (ближайшие 24 часа)

TLE

СвежийSource: Space-Track

Эпоха: Sep 14, 2026, 22:58 UTC

1 29741U 99025AF  26257.95726789  .00001276  00000-0  32807-2 0  9991
2 29741  99.1884  59.1346 1024873 241.2539 283.7248 12.01732057555000

Отслеживайте FENGYUN 1C DEB в реальном времени с AllMySat

Download on the App Store